Latest Weather Observations for Launceston

IDT60801

Issued at 7:05 pm EST Thursday 31 July 2014 (issued every 30 minutes, with the page automatically refreshed every 10 minutes)

About weather observations | Map of weather stations | Latest weather observations for TAS | Other Formats
Station Details ID: 091237 Name: LAUNCESTON (TI TREE BEND) Lat: -41.42 Lon: 147.12 Height: 5.0 m
Data from the previous 72 hours. | See also: Recent months at Launceston
Date/Time
EST
Temp
°C
App
Temp
°C
Dew
Point
Rel
Hum
%
Delta-T
°C
Wind Press
QNH
hPa
Press
MSL
hPa
Rain
since 9 am
mm
Dir
 
Spd
km/h
Gust
km/h
Spd
kts
Gust
kts
31/07:00pm 7.7 1.8 4.1 78 1.6 NW 24 44 13 24 - - 2.2
31/06:30pm 9.3 3.0 3.9 69 2.4 NNW 26 44 14 24 - - 2.2
31/06:00pm 9.4 1.9 3.2 65 2.7 NW 32 48 17 26 - - 2.2
31/05:30pm 9.5 1.2 4.3 70 2.3 NW 37 57 20 31 - - 2.2
31/05:16pm 9.5 2.7 5.1 74 2.0 NNW 30 52 16 28 - - 2.2
31/05:00pm 8.5 3.7 5.8 83 1.2 NNW 20 33 11 18 - - 2.2
31/04:30pm 8.5 1.8 5.6 82 1.3 NNW 30 43 16 23 - - 2.0
31/04:00pm 8.7 2.1 6.0 83 1.2 NW 30 57 16 31 - - 1.8
31/03:48pm 9.2 2.6 5.9 80 1.5 NW 30 54 16 29 - - 1.6
31/03:30pm 10.0 3.7 7.3 83 1.3 NNW 30 44 16 24 - - 1.4
31/03:18pm 10.1 4.2 7.3 83 1.3 NNW 28 46 15 25 - - 1.4
31/03:00pm 10.1 5.9 7.5 84 1.2 NNW 19 30 10 16 - - 1.4
31/02:30pm 10.2 5.9 7.8 85 1.2 NNW 20 30 11 16 - - 1.4
31/02:00pm 11.3 5.0 8.9 85 1.2 NW 32 54 17 29 - - 1.0
31/01:30pm 13.9 3.7 8.5 70 2.7 NNW 52 83 28 45 - - 0.6
31/01:14pm 14.4 4.6 8.6 68 2.9 NNW 50 98 27 53 - - 0.6
31/01:00pm 14.2 3.2 8.6 69 2.8 NNW 56 80 30 43 - - 0.6
31/12:30pm 14.2 3.7 8.8 70 2.7 NNW 54 87 29 47 - - 0.6
31/12:00pm 14.2 3.7 8.8 70 2.7 NNW 54 89 29 48 - - 0.6
31/11:30am 14.4 4.0 9.2 71 2.7 NNW 54 82 29 44 - - 0.6
31/11:00am 14.0 3.0 9.2 73 2.4 NNW 57 82 31 44 - - 0.6
31/10:30am 13.5 4.0 9.7 78 1.9 NNW 50 80 27 43 - - 0.4
31/10:00am 13.5 4.7 9.7 78 1.9 NNW 46 82 25 44 - - 0.4
31/09:30am 12.9 4.7 10.3 84 1.3 NNW 44 70 24 38 - - 0.4
31/09:00am 13.2 4.9 10.0 81 1.6 NNW 44 74 24 40 - - 29.2
31/08:47am 13.2 5.5 10.2 82 1.6 NNW 41 72 22 39 - - 29.2
31/08:30am 12.7 6.6 10.6 87 1.1 NNW 33 54 18 29 - - 29.2
31/08:00am 12.7 5.9 10.8 88 1.0 NNW 37 57 20 31 - - 29.2
31/07:32am 12.3 4.2 10.7 90 0.8 NNW 44 63 24 34 - - 29.2
31/07:30am 12.3 3.9 10.9 91 0.7 NNW 46 63 25 34 - - 29.2
31/07:00am 11.9 6.9 11.0 94 0.5 NW 28 50 15 27 - - 28.8
31/06:30am 12.0 4.9 10.9 93 0.6 NNW 39 59 21 32 - - 24.6
31/06:00am 12.7 5.2 10.9 89 0.9 NNW 41 70 22 38 - - 23.6
31/05:30am 12.9 5.1 11.0 88 1.0 NNW 43 65 23 35 - - 22.8
31/05:00am 13.3 5.2 10.7 84 1.4 NNW 44 76 24 41 - - 22.8
31/04:30am 13.1 5.3 11.0 87 1.1 NNW 43 80 23 43 - - 22.8
31/04:25am 12.9 6.6 11.1 89 0.9 NNW 35 80 19 43 - - 22.8
31/04:00am 11.8 5.3 10.2 90 0.8 NW 35 59 19 32 - - 20.8
31/03:44am 12.1 6.7 10.8 92 0.7 NNW 30 50 16 27 - - 19.2
31/03:30am 11.9 7.2 10.8 93 0.6 NNW 26 41 14 22 - - 18.4
31/03:00am 11.7 5.8 10.6 93 0.6 NNW 32 52 17 28 - - 16.6
31/02:30am 12.2 6.3 11.3 94 0.5 NNW 33 54 18 29 - - 16.2
31/02:00am 12.2 5.6 11.3 94 0.5 NNW 37 59 20 32 - - 14.6
31/01:32am 11.9 6.0 11.1 95 0.4 NW 33 65 18 35 - - 13.0
31/01:30am 11.9 6.0 11.1 95 0.4 NW 33 50 18 27 - - 13.0
31/01:04am 12.1 5.8 11.2 94 0.5 NNW 35 56 19 30 - - 10.6
31/01:00am 12.1 5.8 11.2 94 0.5 NNW 35 54 19 29 - - 10.0
31/12:30am 12.4 4.6 11.0 91 0.7 NNW 43 65 23 35 - - 8.4
31/12:10am 12.7 6.4 11.1 90 0.8 NNW 35 76 19 41 - - 7.6
31/12:03am 12.6 7.4 11.5 93 0.6 NW 30 56 16 30 - - 7.6
31/12:00am 12.3 7.8 11.4 94 0.5 NW 26 44 14 24 - - 7.4
 
Date/Time
EST
Temp
°C
App
Temp
°C
Dew
Point
Rel
Hum
%
Delta-T
°C
Wind Press
QNH
hPa
Press
MSL
hPa
Rain
since 9 am
mm
Dir
 
Spd
km/h
Gust
km/h
Spd
kts
Gust
kts
30/11:31pm 12.5 7.1 10.9 90 0.8 NNW 30 48 16 26 - - 4.2
30/11:30pm 12.7 6.9 10.9 89 0.9 NNW 32 50 17 27 - - 4.2
30/11:04pm 12.8 7.7 10.7 87 1.1 NNW 28 56 15 30 - - 4.0
30/11:00pm 12.6 8.2 10.5 87 1.1 NW 24 41 13 22 - - 4.0
30/10:30pm 12.2 7.5 10.6 90 0.8 NNW 26 43 14 23 - - 3.8
30/10:06pm 12.7 6.8 10.4 86 1.2 N 32 52 17 28 - - 3.0
30/10:00pm 12.8 6.7 10.3 85 1.3 N 33 52 18 28 - - 3.0
30/09:51pm 12.7 7.1 10.2 85 1.3 NNW 30 48 16 26 - - 3.0
30/09:30pm 12.6 7.8 10.3 86 1.2 NNW 26 37 14 20 - - 3.0
30/09:08pm 13.0 7.9 10.5 85 1.3 NNW 28 50 15 27 - - 3.0
30/09:00pm 12.8 9.3 10.3 85 1.3 NNW 19 35 10 19 - - 3.0
30/08:34pm 13.6 7.2 9.5 76 2.1 NW 33 57 18 31 - - 3.0
30/08:30pm 13.5 7.2 9.6 77 2.0 NNW 33 52 18 28 - - 3.0
30/08:06pm 13.2 7.2 10.7 85 1.3 NNW 33 52 18 28 - - 3.0
30/08:00pm 13.0 7.6 10.9 87 1.1 NNW 30 44 16 24 - - 3.0
30/07:30pm 12.8 8.1 10.7 87 1.1 NNW 26 43 14 23 - - 2.6
30/07:00pm 13.1 8.8 10.6 85 1.3 NNW 24 41 13 22 - - 2.4
30/06:30pm 12.5 9.1 10.7 89 0.9 NNW 19 28 10 15 - - 2.4
30/06:02pm 12.9 7.7 10.1 83 1.4 NNW 28 46 15 25 - - 1.8
30/06:00pm 13.0 8.2 10.4 84 1.3 NNW 26 43 14 23 - - 1.8
30/05:30pm 13.0 8.6 10.5 85 1.3 NW 24 37 13 20 - - 1.8
30/05:00pm 13.1 7.6 10.6 85 1.3 NNW 30 44 16 24 - - 1.6
30/04:30pm 13.1 8.4 10.8 86 1.2 NNW 26 44 14 24 - - 1.6
30/04:08pm 13.4 8.4 10.8 84 1.4 NNW 28 46 15 25 - - 1.6
30/04:00pm 12.9 8.6 10.8 87 1.1 NNW 24 39 13 21 - - 1.6
30/03:30pm 12.9 8.7 11.0 88 1.0 NNW 24 35 13 19 - - 1.6
30/03:00pm 12.1 7.5 11.0 93 0.6 NNW 26 35 14 19 - - 1.6
30/02:30pm 12.1 7.4 10.7 91 0.7 NNW 26 43 14 23 - - 1.2
30/02:00pm 12.6 7.5 10.5 87 1.1 NNW 28 46 15 25 - - 0.4
30/01:48pm 12.9 7.7 10.1 83 1.4 NW 28 48 15 26 - - 0.4
30/01:30pm 13.4 7.4 10.0 80 1.8 NNW 32 44 17 24 - - 0.4
30/01:00pm 12.7 8.0 10.6 87 1.1 NNW 26 43 14 23 - - 0.4
30/12:30pm 12.9 7.2 9.7 81 1.6 NNW 30 48 16 26 - - 0.0
30/12:13pm 13.4 7.9 9.1 75 2.2 NW 28 50 15 27 - - 0.0
30/12:00pm 12.9 6.6 9.7 81 1.6 NW 33 48 18 26 - - 0.0
30/11:30am 13.5 7.4 9.6 77 2.0 NNW 32 48 17 26 - - 0.0
30/11:00am 13.2 6.5 9.5 78 1.9 NNW 35 57 19 31 - - 0.0
30/10:54am 13.1 6.9 9.4 78 1.9 NNW 32 50 17 27 - - 0.0
30/10:30am 13.1 6.3 9.4 78 1.9 NNW 35 50 19 27 - - 0.0
30/10:19am 12.9 7.5 9.5 80 1.7 NNW 28 48 15 26 - - 0.0
30/10:00am 12.3 7.0 9.7 84 1.3 NNW 28 44 15 24 - - 0.0
30/09:30am 12.2 7.2 9.4 83 1.4 NNW 26 41 14 22 - - 0.0
30/09:00am 12.4 7.9 8.5 77 1.9 NNW 22 35 12 19 - - 7.6
30/08:30am 11.5 6.3 7.2 75 2.1 NNW 24 39 13 21 - - 7.6
30/08:00am 10.9 5.7 7.2 78 1.8 NNW 24 35 13 19 - - 7.6
30/07:30am 10.6 5.7 6.7 77 1.8 NNW 22 35 12 19 - - 7.6
30/07:00am 10.4 5.8 6.4 76 1.9 NNW 20 30 11 16 - - 7.6
30/06:30am 9.5 6.1 5.7 77 1.7 NW 13 19 7 10 - - 7.6
30/06:00am 10.0 5.2 4.4 68 2.5 NNW 19 28 10 15 - - 7.6
30/05:30am 9.6 5.6 4.8 72 2.1 NNW 15 19 8 10 - - 7.6
30/05:00am 9.6 6.0 4.8 72 2.1 NW 13 17 7 9 - - 7.6
30/04:30am 9.9 6.3 5.1 72 2.2 NNW 13 20 7 11 - - 7.6
30/04:00am 10.4 6.1 5.4 71 2.3 NW 17 26 9 14 - - 7.6
30/03:30am 10.7 5.5 5.3 69 2.5 NNW 22 30 12 16 - - 7.6
30/03:00am 11.2 5.8 4.4 63 3.1 NW 22 46 12 25 - - 7.6
30/02:30am 11.4 6.1 5.1 65 2.9 NW 22 37 12 20 - - 7.6
30/02:00am 11.6 6.7 5.0 64 3.0 NW 20 32 11 17 - - 7.6
30/01:30am 11.2 6.4 5.5 68 2.6 NW 20 30 11 16 - - 7.6
30/01:00am 11.7 5.8 5.8 67 2.7 NW 26 48 14 26 - - 7.6
30/12:37am 11.5 5.3 6.0 69 2.6 NW 28 48 15 26 - - 7.6
30/12:30am 11.5 4.5 6.2 70 2.5 NW 32 44 17 24 - - 7.6
30/12:16am 11.3 4.7 6.0 70 2.5 NW 30 48 16 26 - - 7.6
30/12:00am 11.5 6.2 6.6 72 2.3 NW 24 39 13 21 - - 7.6
 
Date/Time
EST
Temp
°C
App
Temp
°C
Dew
Point
Rel
Hum
%
Delta-T
°C
Wind Press
QNH
hPa
Press
MSL
hPa
Rain
since 9 am
mm
Dir
 
Spd
km/h
Gust
km/h
Spd
kts
Gust
kts
29/11:30pm 11.4 5.7 6.7 73 2.2 NW 26 37 14 20 - - 7.6
29/11:00pm 11.6 5.5 6.5 71 2.4 NW 28 43 15 23 - - 7.6
29/10:30pm 11.7 6.1 5.6 66 2.8 NW 24 35 13 19 - - 7.6
29/10:00pm 11.6 6.0 7.1 74 2.2 NNW 26 41 14 22 - - 7.6
29/09:40pm 12.1 6.1 7.2 72 2.4 NW 28 52 15 28 - - 7.6
29/09:30pm 11.9 6.8 7.6 75 2.1 NW 24 41 13 22 - - 7.6
29/09:16pm 12.1 6.1 7.2 72 2.4 NW 28 46 15 25 - - 7.6
29/09:00pm 12.3 7.1 7.4 72 2.4 NW 24 37 13 20 - - 7.6
29/08:30pm 13.1 8.0 5.8 61 3.4 NW 22 37 12 20 - - 7.6
29/08:00pm 12.3 8.8 7.4 72 2.4 W 15 30 8 16 - - 7.6
29/07:30pm 13.7 7.6 6.8 63 3.3 NW 28 52 15 28 - - 7.4
29/07:00pm 13.8 7.2 8.4 70 2.7 WNW 33 59 18 32 - - 7.4
29/06:30pm 14.1 7.4 9.7 75 2.3 NW 35 61 19 33 - - 7.4
29/06:00pm 14.2 6.7 9.6 74 2.4 NW 39 65 21 35 - - 7.4
29/05:30pm 13.8 7.6 10.0 78 2.0 NNW 33 57 18 31 - - 7.4
29/05:02pm 13.3 7.4 10.3 82 1.6 NW 32 52 17 28 - - 7.4
29/05:00pm 13.3 7.8 10.5 83 1.5 NW 30 46 16 25 - - 7.4
29/04:30pm 12.9 5.4 11.0 88 1.0 NNW 41 69 22 37 - - 7.4
29/04:00pm 13.2 6.4 10.6 84 1.4 NNW 37 57 20 31 - - 6.8
29/03:30pm 13.2 7.1 9.6 79 1.8 NNW 32 54 17 29 - - 6.8
29/03:00pm 13.2 6.9 9.1 76 2.1 NW 32 50 17 27 - - 6.8
29/02:42pm 13.5 7.6 9.0 74 2.3 NNW 30 57 16 31 - - 6.8
29/02:30pm 13.3 7.4 9.0 75 2.2 NNW 30 46 16 25 - - 6.8
29/02:00pm 12.7 7.4 8.6 76 2.0 NW 26 41 14 22 - - 6.8
29/01:30pm 11.6 7.8 9.0 84 1.3 NNW 19 30 10 16 - - 6.8
29/01:00pm 11.4 7.1 9.3 87 1.1 NW 22 39 12 21 - - 6.6
29/12:30pm 11.2 5.8 9.6 90 0.8 WNW 28 48 15 26 - - 6.2
29/12:02pm 11.6 6.4 10.3 92 0.7 NNW 28 46 15 25 - - 2.0
29/12:00pm 11.8 6.2 10.2 90 0.8 NNW 30 46 16 25 - - 1.8
29/11:30am 12.9 8.1 10.3 84 1.3 NNW 26 50 14 27 - - 1.6
29/11:26am 13.1 8.0 10.5 84 1.4 NNW 28 50 15 27 - - 1.6
29/11:00am 12.9 7.6 11.1 89 0.9 NNW 30 46 16 25 - - 1.6
29/10:37am 12.3 7.3 10.9 91 0.7 NW 28 52 15 28 - - 1.6
29/10:30am 11.9 7.2 10.6 92 0.7 NW 26 43 14 23 - - 1.4
29/10:20am 12.0 6.5 10.4 90 0.8 NW 30 50 16 27 - - 0.8
29/10:00am 12.0 7.6 10.4 90 0.8 NNW 24 35 13 19 - - 0.0
29/09:30am 11.8 6.1 9.7 87 1.1 NNW 30 46 16 25 - - 0.0
29/09:16am 12.7 7.6 10.6 87 1.1 NW 28 46 15 25 - - 0.0
29/09:00am 12.0 7.6 10.4 90 0.8 NW 24 39 13 21 - - 33.8
29/08:30am 12.2 5.2 11.1 93 0.6 NNW 39 63 21 34 - - 31.8
29/08:00am 12.4 4.6 11.1 92 0.7 NNW 43 74 23 40 - - 31.0
29/07:53am 12.3 6.0 11.2 93 0.6 NNW 35 74 19 40 - - 30.4
29/07:39am 11.8 6.8 11.0 95 0.4 NW 28 48 15 26 - - 29.2
29/07:30am 11.6 6.9 10.8 95 0.4 NNW 26 44 14 24 - - 26.8
29/07:00am 11.8 6.4 10.9 94 0.5 NW 30 56 16 30 - - 23.8
29/06:30am 11.8 5.8 10.7 93 0.6 NW 33 59 18 32 - - 20.0
29/06:00am 11.9 5.5 10.6 92 0.7 NNW 35 61 19 33 - - 18.0
29/05:38am 12.0 7.0 10.9 93 0.6 NNW 28 56 15 30 - - 17.6
29/05:30am 11.5 6.4 10.6 94 0.5 NNW 28 44 15 24 - - 17.4
29/05:00am 11.7 5.8 10.6 93 0.6 NNW 32 50 17 27 - - 14.0
29/04:30am 11.9 5.8 10.3 90 0.8 NNW 33 52 18 28 - - 13.0
29/04:02am 12.1 6.5 10.2 88 1.0 N 30 48 16 26 - - 12.6
29/04:00am 12.0 6.8 10.1 88 1.0 N 28 43 15 23 - - 12.6
29/03:30am 11.7 6.4 9.8 88 1.0 NNW 28 44 15 24 - - 12.4
29/03:00am 11.5 7.3 9.6 88 1.0 NNW 22 37 12 20 - - 12.2
29/02:30am 11.3 7.1 9.7 90 0.8 NNW 22 37 12 20 - - 12.2
29/02:00am 10.3 7.3 9.2 93 0.5 NNW 15 24 8 13 - - 12.0
29/01:30am 10.3 6.2 8.7 90 0.8 NNW 20 32 11 17 - - 12.0
29/01:00am 10.0 7.0 9.2 95 0.4 NNW 15 22 8 12 - - 12.0
29/12:30am 10.5 6.6 9.4 93 0.5 N 20 30 11 16 - - 11.8
29/12:00am 10.5 8.8 9.9 96 0.3 NW 9 13 5 7 - - 11.8
 
Date/Time
EST
Temp
°C
App
Temp
°C
Dew
Point
Rel
Hum
%
Delta-T
°C
Wind Press
QNH
hPa
Press
MSL
hPa
Rain
since 9 am
mm
Dir
 
Spd
km/h
Gust
km/h
Spd
kts
Gust
kts
28/11:30pm 10.6 8.2 10.0 96 0.3 NNW 13 22 7 12 - - 10.8
28/11:00pm 10.5 8.1 9.9 96 0.3 NW 13 17 7 9 - - 9.6
28/10:30pm 10.6 8.5 9.8 95 0.4 W 11 13 6 7 - - 9.0
28/10:00pm 10.4 8.2 9.5 94 0.4 NNW 11 15 6 8 - - 8.0
28/09:30pm 10.8 7.9 9.6 92 0.6 NNW 15 22 8 12 - - 7.8
28/09:00pm 9.9 7.0 8.3 90 0.8 NNW 13 19 7 10 - - 7.8
28/08:30pm 10.2 7.1 8.8 91 0.7 NNW 15 24 8 13 - - 7.8
28/08:00pm 10.2 7.5 8.8 91 0.7 NNW 13 19 7 10 - - 7.8
28/07:30pm 10.4 6.5 8.7 89 0.8 NW 19 26 10 14 - - 7.6

Other Formats:

Comma delimited format used in spreadsheet applications
http://www.bom.gov.au/fwo/IDT60801/IDT60801.94969.axf

JavaScript Object Notation format (JSON) in row-major order
http://www.bom.gov.au/fwo/IDT60801/IDT60801.94969.json